Location: Ostrava
(49.8330°N, 18.2830°E)
Time: 16:01:17
(UTC+02:00)

Iridium 39 - Visible Passes

Search period start: 29 July 2016 00:00
Search period end: 08 August 2016 00:00
Orbit: 726 x 751 km, 86.4° (Epoch: 28 July)

Date Brightness Start Highest point End Pass type
(mag) Time Alt. Az. Time Alt. Az. Time Alt. Az.
29 Jul 7.8 01:12:50 10° NNE 01:16:54 23° ENE 01:20:07 13° ESE visible
29 Jul 6.2 02:52:11 10° NNW 02:57:09 53° W 02:59:44 27° SSW visible
30 Jul 8.5 00:29:33 10° NE 00:31:12 11° ENE 00:32:52 10° E visible
30 Jul 6.1 02:07:00 10° N 02:12:07 72° E 02:14:32 31° SSE visible
30 Jul 7.7 03:48:09 10° NW 03:51:25 17° WNW 03:54:10 12° WSW visible
31 Jul 7.2 01:22:12 10° NNE 01:26:50 34° ENE 01:29:21 22° SE visible
31 Jul 6.8 03:02:07 10° NNW 03:06:45 35° W 03:08:58 24° SW visible
01 Aug 8.2 00:38:01 10° NNE 00:41:18 17° ENE 00:44:10 11° ESE visible
01 Aug 5.9 02:16:44 10° N 02:21:50 77° W 02:23:48 38° S visible
01 Aug 8.0 03:59:10 10° NW 04:00:49 12° WNW 04:02:28 10° W visible
02 Aug 6.5 01:31:43 10° N 01:36:42 50° E 01:38:37 33° SE visible
02 Aug 7.3 03:12:13 10° NNW 03:16:17 24° W 03:18:15 19° WSW visible
03 Aug 7.7 00:47:08 10° NNE 00:51:18 24° ENE 00:53:28 19° ESE visible
03 Aug 6.3 02:26:34 10° NNW 02:31:30 51° W 02:33:06 37° SW visible
04 Aug 8.4 00:03:41 10° NE 00:05:38 12° ENE 00:07:34 10° E visible
04 Aug 6.0 01:41:22 10° N 01:46:29 76° E 01:47:56 47° SSE visible
04 Aug 7.7 03:22:37 10° NW 03:25:44 17° WNW 03:27:34 14° W visible
05 Aug 7.1 00:56:32 10° N 01:01:13 35° ENE 01:02:47 29° ESE visible
05 Aug 6.8 02:36:32 10° NNW 02:41:06 34° W 02:42:25 29° WSW visible
06 Aug 8.0 00:12:17 10° NNE 00:15:42 18° ENE 00:17:39 15° E visible
06 Aug 5.9 01:51:07 10° N 01:56:13 73° W 01:57:18 54° SSW visible
06 Aug 8.1 03:33:51 10° NW 03:35:09 11° WNW 03:36:26 10° W visible
07 Aug 6.4 01:06:05 10° N 01:11:05 53° E 01:12:10 44° ESE visible
07 Aug 7.3 02:46:40 10° NNW 02:50:37 23° W 02:51:48 21° W visible
